CW7701 Weather Reports


time (UTC)temp
C
wind
direction
speed
KPH
gust
KPH
rain 1hr
cm
rain 24hr
cm
rain mn
cm
humidity
%
barometer
mb
20260831021508 32 242 0.0 4.8 0.00 0.00 0.00 56 1009.2
20260831020008 32 242 1.6 4.8 0.00 0.00 0.00 55 1009.2
20260831014507 32 242 1.6 6.4 0.00 0.00 0.00 55 1008.8
20260831013007 33 242 1.6 6.4 0.00 0.00 0.00 55 1008.5
20260831011506 33 242 1.6 3.2 0.00 0.00 0.00 54 1008.5
20260831010006 34 242 1.6 3.2 0.00 0.00 0.00 54 1008.3
20260831004509 34 242 1.6 6.4 0.00 0.00 0.00 54 1008.2
20260831003007 34 242 1.6 8.0 0.00 0.00 0.00 55 1008.0
20260831001508 34 243 1.6 6.4 0.00 0.00 0.00 54 1007.8
20260831000005 34 243 1.6 4.8 0.00 0.00 0.00 53 1007.7
20260830234504 34 243 3.2 8.0 0.00 0.00 0.00 50 1007.7
20260830233002 33 259 1.6 9.7 0.00 0.00 0.00 50 1007.9
20260830231559 34 257 3.2 6.4 0.00 0.00 0.00 51 1008.1
20260830230057 34 257 3.2 6.4 0.00 0.00 0.00 49 1008.2
20260830224554 34 257 3.2 9.7 0.00 0.00 0.00 49 1008.4
20260830223054 33 256 1.6 11.3 0.00 0.00 0.00 53 1008.5
20260830221552 32 211 8.0 16.1 0.00 0.00 0.00 56 1008.7
20260830220101 32 207 4.8 12.9 0.00 0.00 0.00 56 1009.0
20260830214550 33 197 4.8 14.5 0.00 0.00 0.00 55 1009.1
20260830213046 32 229 8.0 14.5 0.00 0.00 0.00 52 1009.3
20260830211548 31 240 3.2 14.5 0.00 0.00 0.00 54 1009.6
20260830210042 31 234 9.7 17.7 0.00 0.00 0.00 55 1009.8
20260830204553 31 248 9.7 17.7 0.00 0.00 0.00 56 1010.3
20260830203037 31 250 9.7 19.3 0.00 0.00 0.00 58 1010.5
20260830201534 31 261 8.0 17.7 0.00 0.00 0.00 59 1010.8
20260830200037 31 96 1.6 4.8 0.00 0.00 0.00 56 1011.2
20260830194536 31 96 3.2 16.1 0.00 0.00 0.00 56 1011.3
20260830193030 33 90 8.0 17.7 0.00 0.00 0.00 56 1011.4
20260830191608 35 101 6.4 24.1 0.00 0.00 0.00 53 1011.0
20260830190032 36 109 8.0 20.9 0.00 0.00 0.00 54 1011.3
20260830184525 36 157 8.0 24.1 0.00 0.00 0.00 58 1011.3
20260830183021 36 155 14.5 25.7 0.00 0.00 0.00 61 1011.7
20260830181519 36 178 3.2 12.9 0.00 0.00 0.00 60 1011.5
20260830180016 35 144 6.4 19.3 0.00 0.00 0.00 61 1011.7
20260830174515 36 124 4.8 12.9 0.00 0.00 0.00 56 1011.8
20260830173013 36 360 3.2 9.7 0.00 0.00 0.00 51 1011.9
20260830171507 36 360 1.6 14.5 0.00 0.00 0.00 53 1012.0
20260830170003 35 329 6.4 16.1 0.00 0.00 0.00 54 1012.2
20260830164559 35 290 4.8 16.1 0.00 0.00 0.00 56 1012.3
20260830163056 35 55 8.0 20.9 0.00 0.00 0.00 57 1012.2
20260830161602 34 5 4.8 16.1 0.00 0.00 0.00 60 1012.3
20260830160052 33 302 6.4 17.7 0.00 0.00 0.00 62 1012.4
20260830154544 32 32 4.8 17.7 0.00 0.00 0.00 64 1012.2
20260830153040 32 299 8.0 20.9 0.00 0.00 0.00 65 1012.3
20260830151536 31 40 4.8 16.1 0.00 0.00 0.00 65 1012.2
20260830150039 30 5 4.8 14.5 0.00 0.00 0.00 67 1012.2
20260830144530 29 20 3.2 9.7 0.00 0.00 0.00 68 1012.1
20260830143026 28 331 3.2 14.5 0.00 0.00 0.00 70 1011.9
20260830141524 27 18 3.2 12.9 0.00 0.00 0.00 71 1011.9
20260830140023 27 355 3.2 9.7 0.00 0.00 0.00 71 1011.8
20260830134521 27 315 3.2 8.0 0.00 0.00 0.00 71 1011.6
20260830133021 27 275 1.6 6.4 0.00 0.00 0.00 71 1011.7
20260830131538 27 275 1.6 11.3 0.00 0.00 0.00 72 1011.4
20260830130015 27 268 1.6 9.7 0.00 0.00 0.00 73 1011.3
20260830124514 27 250 1.6 4.8 0.00 0.00 0.00 70 1011.3
20260830123014 28 250 1.6 4.8 0.00 0.00 0.00 69 1011.4
20260830121514 27 250 1.6 8.0 0.00 0.00 0.00 71 1011.8
20260830120014 27 250 1.6 6.4 0.00 0.00 0.00 74 1011.6
20260830114511 27 250 3.2 4.8 0.00 0.00 0.00 76 1011.6
20260830113016 27 250 0.0 6.4 0.00 0.00 0.00 77 1011.7
20260830111509 27 250 1.6 4.8 0.00 0.00 0.00 77 1011.6
20260830110009 27 250 0.0 6.4 0.00 0.00 0.00 78 1011.3
20260830104506 27 250 1.6 4.8 0.00 0.00 0.00 78 1011.0
20260830103005 27 250 0.0 4.8 0.00 0.00 0.00 78 1010.9
20260830101503 27 250 0.0 3.2 0.00 0.00 0.00 77 1010.7
20260830100100 27 250 0.0 4.8 0.00 0.00 0.00 76 1010.8
20260830094600 28 250 1.6 4.8 0.00 0.00 0.00 75 1010.9
20260830093059 28 250 1.6 8.0 0.00 0.00 0.00 74 1011.0
20260830091558 28 250 1.6 6.4 0.00 0.00 0.00 74 1010.9
20260830090055 28 246 0.0 4.8 0.00 0.00 0.00 73 1011.1
20260830084552 28 246 0.0 4.8 0.00 0.00 0.00 72 1011.1
20260830083056 28 246 1.6 3.2 0.00 0.00 0.00 70 1011.2
20260830081547 28 246 0.0 1.6 0.00 0.00 0.00 69 1011.2
20260830080047 28 246 0.0 3.2 0.00 0.00 0.00 68 1011.3
20260830074544 28 246 0.0 3.2 0.00 0.00 0.00 67 1011.1
20260830073041 29 246 0.0 3.2 0.00 0.00 0.00 66 1011.1
20260830071540 29 246 0.0 3.2 0.00 0.00 0.00 65 1011.1
20260830070057 29 246 0.0 1.6 0.00 0.00 0.00 64 1011.2
20260830064535 30 246 0.0 3.2 0.00 0.00 0.00 64 1011.4
20260830063036 30 246 0.0 3.2 0.00 0.00 0.00 63 1011.3
20260830061534 30 246 0.0 4.8 0.00 0.00 0.00 62 1011.5
20260830060045 31 246 1.6 3.2 0.00 0.00 0.00 61 1011.6
20260830054532 31 246 0.0 3.2 0.00 0.00 0.00 57 1011.7
20260830053034 32 246 0.0 4.8 0.00 0.00 0.00 56 1011.8
20260830051536 32 248 6.4 17.7 0.00 0.00 0.00 52 1011.7
20260830050031 32 226 6.4 16.1 0.00 0.00 0.00 51 1011.7
20260830044541 32 244 8.0 16.1 0.00 0.00 0.00 52 1011.8
20260830043029 31 227 4.8 12.9 0.00 0.00 0.00 56 1011.9
20260830041547 31 233 6.4 16.1 0.00 0.00 0.00 58 1011.8
20260830040030 31 194 4.8 12.9 0.00 0.00 0.00 65 1011.7
20260830034524 31 190 6.4 14.5 0.00 0.00 0.00 66 1011.4
20260830033025 31 180 6.4 14.5 0.00 0.00 0.00 66 1011.4
20260830031529 31 188 4.8 12.9 0.00 0.00 0.00 66 1011.3
20260830030027 31 175 9.7 16.1 0.00 0.00 0.00 66 1011.2
20260830024520 32 169 8.0 14.5 0.00 0.00 0.00 65 1011.0
20260830023018 32 167 4.8 9.7 0.00 0.00 0.00 66 1010.8